Content
SEND FEEDBACK

Daily
Averages
Monthly
Summary
United States of America

ADAMS, OKLAHOMA


Home > North America > United States > Oklahoma
Elevation: 2830 feet     Latitude: 36 39N     Longitude: 101 08W

WEATHER
 
SELECT A DAY
Number of Records: 148,859;   Date Range: 12/1/98 - 8/12/14
 
SHARE

PRINT THIS DATA

[ ← Previous Day ]
WEATHER ALMANAC - JANUARY 31, 2013
[ Next Day → ]
[ °C ]   °F
Weather ElementAverageHighLow
Temperature36 °F48 °F (2:53 pm)21 °F (2:53 am)
Dewpoint19.6 °F26.1 °F (4:53 pm)14 °F (2:53 am)
Humidity53.3 %78 % (11:53 pm)35 % (10:53 am)
Barometer30.12 in30.30 in (11:53 pm)29.97 in (4:53 am)
Wind Speed10 mph18.4 mph (10:53 am)
Wind Gust27.6 mph (12:53 pm)
Weather ElementAverage
Visibility10 mi
Wind DirectionSSE (155.2 °)

Weather ElementTotal
Precipitation---
Heating Degree Days30.5 (Base 65)
Averaged from 21 records on January 31, 2013
WEATHER CONDITIONS BREAKOUT
WIND DIRECTION BREAKOUT
WEATHER BY HOUR - JANUARY 31, 2013
[ °C ]   °F
Local TimeTemperatureDewpointHumidityBarometerVisibilityWind DirectionWind SpeedGust SpeedPrecipitationEventsConditions
1:53 AM25.0 °F15.1 °F66 %29.99 in10.0 miSouth (190°)4.6 mphClear
2:53 AM21.0 °F14.0 °F74 %29.99 in10.0 miSW (220°)5.8 mphClear
3:53 AM25.0 °F16.0 °F69 %29.98 in10.0 miCalmClear
4:53 AM28.9 °F17.1 °F61 %29.97 in10.0 miWest (260°)9.2 mphClear
5:53 AM28.9 °F16.0 °F58 %29.97 in10.0 miWest (260°)6.9 mphClear
6:53 AM30.9 °F16.0 °F54 %30.01 in10.0 miWest (270°)12.7 mphClear
7:53 AM32.0 °F17.1 °F54 %30.03 in10.0 miWest (280°)11.5 mphClear
8:53 AM37.0 °F17.1 °F44 %30.06 in10.0 miWest (270°)9.2 mphClear
9:53 AM44.1 °F19.9 °F38 %30.08 in10.0 miWest (280°)12.7 mphClear
10:53 AM46.0 °F19.9 °F35 %30.13 in10.0 miNorth (350°)18.4 mphClear
11:53 AM45.0 °F19.9 °F37 %30.15 in10.0 miNE (40°)13.8 mphClear
12:53 PM46.9 °F23.0 °F39 %30.14 in10.0 miNNE (20°)18.4 mph27.6 mphClear
2:53 PM48.0 °F24.1 °F39 %30.17 in10.0 miENE (60°)11.5 mphClear
3:53 PM48.0 °F25.0 °F41 %30.18 in10.0 miEast (90°)5.8 mphClear
4:53 PM48.0 °F26.1 °F42 %30.19 in10.0 miENE (70°)10.4 mphClear
5:53 PM45.0 °F25.0 °F46 %30.21 in10.0 miEast (100°)10.4 mphClear
6:53 PM39.9 °F23.0 °F51 %30.23 in10.0 miEast (100°)11.5 mphClear
7:53 PM36.0 °F21.9 °F57 %30.26 in10.0 miESE (110°)11.5 mphClear
8:53 PM32.0 °F19.9 °F61 %30.28 in10.0 miEast (90°)10.4 mphClear
10:53 PM25.0 °F18.0 °F75 %30.28 in10.0 miEast (100°)9.2 mphClear
11:53 PM23.0 °F17.1 °F78 %30.30 in10.0 miEast (100°)5.8 mphClear
Hourly data recorded from KGUY, located miles away from Adams, Oklahoma







STORIES FROM OUR PARTNERS